sat.trackr.live / text

‹ back to catalog

STARLINK-34912

NORAD 65378 · 2025-190AD

PAYLOAD ACTIVE UNKNOWN

§ Identity

Operator
Country
US
Launch date
2025-08-28
Launch site
AFETR
Launch vehicle
Mass (kg)
RCS (m²)

Purposes: comms

External: N2YO · Heavens-Above · Gunter

§ Orbital elements

Epoch: 2026-09-20T20:25:40.333728Z

Period
93.85 min
Inclination
53.1593°
Eccentricity
0.0003012
Mean motion
15.34416075 rev/d
Perigee alt
460.6 km
Apogee alt
464.7 km
Semi-major
6,840.8 km
B*
1.9222e-4
RAAN
340.3659°
Arg perigee
166.4029°
Mean anomaly
193.7055°
Rev number
5,965

§ Raw data

STARLINK-349121 65378U 25190AD  26263.85116127  .00006126  00000+0  19222-3 0  99992 65378  53.1593 340.3659 0003012 166.4029 193.7055 15.34416075 59652

JSON: /api/v1/satellites/65378 · /tle

For live sub-satellite position, see the globe view (requires WebGL).

§ Visibility from observer

Set your observer location to see the next 7 days of passes ≥ 10°. The values pass through the URL so the page stays shareable.

No JS? Fill the form by hand. The geolocation button needs JavaScript.